"Pseudo-MPEC" for P22jXrk

Created 2026 Jan 18 8:35:22 UT using Find_Orb

Click here for an explanation of pseudo-MPECs

 
 Astrometry: 
     P22jXrk* C2026 01 09.39221508 10 06.149+66 33 38.39   ~19DZ 21.72wXNEOCPF52
     P22jXrk  C2026 01 09.40433308 10 08.189+66 34 28.10   ~19DZ 21.64wXNEOCPF52
     P22jXrk  C2026 01 09.41659108 10 10.258+66 35 18.90   ~19DZ 21.38wXNEOCPF52
     P22jXrk  C2026 01 09.42889608 10 12.333+66 36 09.12   ~19DZ 21.45wXNEOCPF52
     P22jXrk  C2026 01 09.57083308 10 36.200+66 45 32.33   ~19Io 21.27GVNEOCPF51
     P22jXrk  C2026 01 09.57147408 10 36.345+66 45 34.39   ~19Io 21.75GVNEOCPF51
     P22jXrk 3C2026 01 11.43963808 17 58.938+68 49 59.65   ~1BEo 21.40GVNEOCPT14
     P22jXrk 3C2026 01 11.44061308 17 59.136+68 50 03.52   ~1BEo 21.53GVNEOCPT14
     P22jXrk 3C2026 01 11.44158608 17 59.344+68 50 07.39   ~1BEo 21.13GVNEOCPT14
     P22jXrk 3C2026 01 11.44256108 17 59.539+68 50 11.37   ~1BEo 21.02GVNEOCPT14
     P22jXrk  C2026 01 13.35419208 26 59.057+70 55 30.51   ~1D9K 21.3 GWNEOCPH01
     P22jXrk  C2026 01 13.36112108 27 00.889+70 55 57.40   ~1D9K 21.4 GWNEOCPH01
     P22jXrk  C2026 01 13.37156308 27 03.626+70 56 37.58   ~1D9K 21.9 GWNEOCPH01
     P22jXrk  C2026 01 13.37573508 27 04.731+70 56 53.58   ~1D9K 21.4 GWNEOCPH01
     P22jXrk 1C2026 01 15.90761008 42 36.598+73 38 03.20   ~1FMK 20.6 GXNEOCP033
     P22jXrk 1C2026 01 15.91093008 42 37.890+73 38 16.20   ~1FMK 20.5 GXNEOCP033
     P22jXrk 1C2026 01 15.91425008 42 39.049+73 38 28.50   ~1FMK 20.6 GXNEOCP033

Station data:
(033) Karl Schwarzschild Observatory, Tautenburg  (N50.980139 E11.711240)
   Germany.  Observer B. Stecklum. 1.34-m f/3 Schmidt + CCD.
(F51) Pan-STARRS 1, Haleakala  (N20.707234 W156.255910)  US/Hawaii.
   Observers J. Herman, T. Lowe, P. Minguez, A. Schultz, I. Smith. Measurers
   K. Chambers, T. de Boer, J. Fairlamb, H. Gao, M. Huber, C.-C. Lin, E.
   Magnier, Y. Ramanjooloo, R. Wainscoat, R. Weryk. 1.8-m Ritchey-Chrétien +
   CCD.
(F52) Pan-STARRS 2, Haleakala  (N20.707382 W156.255910)  US/Hawaii.
   Observers J. Herman, T. Lowe, P. Minguez, A. Schultz, I. Smith. Measurers
   K. Chambers, T. de Boer, J. Fairlamb, H. Gao, M. Huber, C.-C. Lin, E.
   Magnier, Y. Ramanjooloo, R. Wainscoat, R. Weryk. 1.8-m Ritchey-Chrétien +
   CCD.
(H01) Magdalena Ridge Observatory, Socorro  (N33.984833 W107.189333)  US/New
   Mexico.  Observers W. H. Ryan, E. V. Ryan. Measurer W. H. Ryan. 2.4-m
   f/8.9 reflector + CCD.
(T14) Mauna Kea-UH/Tholen NEO Follow-Up (CFHT)  (N19.825252 W155.468876)
   US/Hawaii.  Observer R. Weryk. 3.6-m Canada-France-Hawaii Telescope.

Orbital elements:  P22jXrk
   Perihelion 2026 Mar 3.512454 +/- 0.00399 TT = 12:17:55.9 (JD 2461103.012454)
Epoch 2026 Jan 15.0 TT = JDT 2461055.5   Earth MOID: 0.1176   Ma: 0.0239
M 334.067029154 +/- 0.07            (J2000 ecliptic)             AutoNEOCP
n   0.545814179 +/- 0.00153         Peri.  103.854458 +/- 0.048
a   1.482880565 +/- 0.00278         Node    60.136553 +/- 0.046
e   0.31943850 +/- 0.00117          Incl.    9.122005 +/- 0.034
P   1.806/659.553d         H 23.29  G  0.15   U  8.4
q 1.009191420 +/- 0.000159    Q 1.956569711 +/- 0.00539
From 17 observations 2026 Jan. 9-15; mean residual 0".14
Residuals in arcseconds: 
260109 F52  .01-  .01+    260111 T14  .01+  .04+    260113 H01  .10-  .06-    
260109 F52  .10-  .25-    260111 T14  .00   .01-    260113 H01  .10-  .10-    
260109 F52  .07-  .23+    260111 T14  .04+  .05-    260115 033  .07+  .08+    
260109 F52  .03+  .15+    260111 T14  .02+  .01+    260115 033  .09+  .30+    
260109 F51  .10-  .17+    260113 H01  .07-  .07-    260115 033  .44-  .18-    
260109 F51  .09+  .25-    260113 H01  .02-  .02+    

Ephemerides (geocentric):
Date (UTC) HH   RA             Dec           delta  r     elong  mag " sig PA
---- --------  ------------   ------------  ------ ------ -----  --- --------
2026 01 18 09  09 03 04.809   +76 06 58.87  .17661 1.0922 123.9 21.5 .120  29
2026 01 18 10  09 03 29.311   +76 09 24.42  .17657 1.0921 123.8 21.5 .124  30
2026 01 18 11  09 03 53.953   +76 11 49.75  .17652 1.0919 123.8 21.5 .129  30
2026 01 18 12  09 04 18.738   +76 14 14.88  .17648 1.0918 123.7 21.5 .133  31
2026 01 18 13  09 04 43.665   +76 16 39.78  .17643 1.0917 123.7 21.5 .138  31
2026 01 18 14  09 05 08.736   +76 19 04.47  .17639 1.0915 123.6 21.5 .142  31
2026 01 18 15  09 05 33.952   +76 21 28.93  .17634 1.0914 123.6 21.5 .147  32
2026 01 18 16  09 05 59.315   +76 23 53.17  .17630 1.0912 123.5 21.5 .152  32
2026 01 18 17  09 06 24.824   +76 26 17.19  .17626 1.0911 123.5 21.5 .157  32
2026 01 18 18  09 06 50.481   +76 28 40.99  .17621 1.0909 123.4 21.5 .161  33
2026 01 18 19  09 07 16.287   +76 31 04.56  .17617 1.0908 123.4 21.5 .166  33
2026 01 18 20  09 07 42.243   +76 33 27.89  .17613 1.0906 123.3 21.5 .171  33
2026 01 18 21  09 08 08.350   +76 35 51.00  .17609 1.0905 123.3 21.5 .176  34
2026 01 18 22  09 08 34.610   +76 38 13.88  .17604 1.0904 123.2 21.5 .181  34
2026 01 18 23  09 09 01.023   +76 40 36.52  .17600 1.0902 123.2 21.5 .187  34
2026 01 19 00  09 09 27.591   +76 42 58.93  .17596 1.0901 123.1 21.5 .192  35
2026 01 19 01  09 09 54.314   +76 45 21.10  .17591 1.0899 123.1 21.5 .197  35
2026 01 19 02  09 10 21.193   +76 47 43.03  .17587 1.0898 123.0 21.5 .202  35
2026 01 19 03  09 10 48.231   +76 50 04.71  .17583 1.0896 123.0 21.5 .208  36
2026 01 19 04  09 11 15.427   +76 52 26.16  .17579 1.0895 122.9 21.5 .213  36
2026 01 19 05  09 11 42.783   +76 54 47.36  .17575 1.0894 122.9 21.5 .219  36
2026 01 19 06  09 12 10.301   +76 57 08.32  .17570 1.0892 122.8 21.5 .224  36
2026 01 19 07  09 12 37.980   +76 59 29.02  .17566 1.0891 122.8 21.5 .230  37
2026 01 19 08  09 13 05.823   +77 01 49.48  .17562 1.0889 122.7 21.5 .236  37
2026 01 19 09  09 13 33.831   +77 04 09.69  .17558 1.0888 122.7 21.5 .241  37
2026 01 19 10  09 14 02.004   +77 06 29.64  .17554 1.0887 122.6 21.5 .247  37
2026 01 19 11  09 14 30.344   +77 08 49.33  .17550 1.0885 122.5 21.5 .253  38
2026 01 19 12  09 14 58.852   +77 11 08.77  .17546 1.0884 122.5 21.5 .259  38
2026 01 19 13  09 15 27.529   +77 13 27.95  .17541 1.0882 122.4 21.5 .265  38
2026 01 19 14  09 15 56.377   +77 15 46.86  .17537 1.0881 122.4 21.5 .271  38
2026 01 19 15  09 16 25.396   +77 18 05.52  .17533 1.0879 122.3 21.5 .277  39
2026 01 19 16  09 16 54.588   +77 20 23.90  .17529 1.0878 122.3 21.5 .283  39
2026 01 19 17  09 17 23.954   +77 22 42.02  .17525 1.0877 122.2 21.5 .290  39
2026 01 19 18  09 17 53.495   +77 24 59.87  .17521 1.0875 122.2 21.5 .296  39
2026 01 19 19  09 18 23.213   +77 27 17.45  .17517 1.0874 122.1 21.5 .302  40
2026 01 19 20  09 18 53.108   +77 29 34.75  .17513 1.0872 122.1 21.5 .309  40
2026 01 19 21  09 19 23.182   +77 31 51.78  .17509 1.0871 122.0 21.5 .315  40
2026 01 19 22  09 19 53.436   +77 34 08.53  .17505 1.0870 122.0 21.5 .322  40
2026 01 19 23  09 20 23.872   +77 36 25.00  .17501 1.0868 121.9 21.5 .329  41
2026 01 20 00  09 20 54.490   +77 38 41.19  .17497 1.0867 121.9 21.5 .335  41
2026 01 20 01  09 21 25.292   +77 40 57.10  .17493 1.0865 121.8 21.5 .342  41
2026 01 20 02  09 21 56.279   +77 43 12.71  .17489 1.0864 121.8 21.5 .349  41
2026 01 20 03  09 22 27.452   +77 45 28.04  .17485 1.0863 121.7 21.6 .356  42
2026 01 20 04  09 22 58.813   +77 47 43.08  .17481 1.0861 121.7 21.6 .363  42
2026 01 20 05  09 23 30.363   +77 49 57.83  .17478 1.0860 121.6 21.6 .370  42
2026 01 20 06  09 24 02.103   +77 52 12.28  .17474 1.0858 121.6 21.6 .377  42
2026 01 20 07  09 24 34.035   +77 54 26.43  .17470 1.0857 121.5 21.6 .384  42
2026 01 20 08  09 25 06.159   +77 56 40.28  .17466 1.0856 121.5 21.6 .391  43